User: anonymous
Location: Clinton NY
(43.0598°N, 75.3602°W)
Time: 10:29:31
(UTC-04:00)
Language:

Iridium 11 - Orbit

View from above orbital plane
View from above orbital plane
View from above satellite
View from above satellite

Ground track
Ground track

The orbit data is extracted from the following two-line orbital elements,

1 25578U 98074B   14274.46896758  .00000284  00000-0  94380-4 0   517
2 25578 086.3940 309.3220 0002152 109.2021 025.5862 14.34217456835543
Epoch (UTC): 01 October 2014 11:15:18
Eccentricity: 0.0002152
inclination: 86.3940°
perigee height: 776 km
apogee height: 779 km
right ascension of ascending node: 309.3220°
argument of perigee: 109.2021°
revolutions per day: 14.34217456
mean anomaly at epoch: 25.5862°
orbit number at epoch: 83554

The dashed part of the orbit path shows where the satellite is in the earth's shadow,  

DLR